Regional Weather Roundup
Issued by NWS

Home | Current Version | Previous Version | Graphics & Text | Print | Product List | Glossary On
Versions: 1 2 3 4 5 6 7 8 9 10 11 12 13 14 15 16 17 18 19 20 21 22 23 24 25 26 27 28 29 30 31 32 33 34 35 36 37 38 39 40 41 42 43 44 45 46 47 48 49 50
102
ASUS43 KMKX 041311
RWRWI

WISCONSIN REGIONAL WEATHER ROUNDUP
NATIONAL WEATHER SERVICE MILWAUKEE/SULLIVAN WI
800 AM CDT WED MAY 04 2016

NOTE: "FAIR" INDICATES FEW OR NO CLOUDS BELOW 12,000 FEET WITH NO
SIGNIFICANT WEATHER AND/OR OBSTRUCTIONS TO VISIBILITY.

WIZ001-002-006>008-014>016-023>028-041400-
NORTHWEST WISCONSIN

CITY           SKY/WX    TMP DP  RH WIND       PRES   REMARKS
SUPERIOR ARPT  SUNNY     48  34  58 N7        29.97R
ASHLAND        SUNNY     47  34  60 N15       29.93R
HAYWARD        SUNNY     45  32  60 VRB7G17   29.93R
SIREN          SUNNY     47  32  57 N9        29.96R
CUMBERLAND     SUNNY     45  32  61 N12       29.94R
RICE LAKE      SUNNY     46  33  59 N10       29.94S
CHETEK         SUNNY     46  35  65 NW7G17    29.92S
LADYSMITH      SUNNY     45  34  66 N8G17     29.91R
EAU CLAIRE     SUNNY     48  35  60 N13       29.91R
MENOMONIE      SUNNY     49  34  55 NW12      29.93R
NEW RICHMOND   SUNNY     48  32  55 N10       29.96R
OSCEOLA        SUNNY     47  34  61 N6        30.00R
$$

WIZ003>005-009-010-017-018-041400-
NORTH CENTRAL WISCONSIN

CITY           SKY/WX    TMP DP  RH WIND       PRES   REMARKS
MANITOWISH WTR PTSUNNY   41  33  73 N14G22    29.86R
ARBOR VITAE    MOSUNNY   42  35  77 N13G22    29.85R
WOODRUFF       MOSUNNY   42  35  77 N13G22    29.85R
RHINELANDER    SUNNY     40  31  70 N17G25    29.84R WCI  31
EAGLE RIVER    PTSUNNY   39  31  72 N14G21    29.84R WCI  31
LAND O LAKES   CLOUDY    38  33  82 N13       29.85R WCI  30
PHILLIPS       SUNNY     42  34  73 N6        29.87R
TOMAHAWK       SUNNY     42  33  71 N6        29.84S
MEDFORD        SUNNY     42  36  78 N8        29.85R
MERRILL        PTSUNNY   43  37  80 N9G17     29.84R
$$

WIZ029-030-035-036-043>047-041400-
CENTRAL WISCONSIN

CITY           SKY/WX    TMP DP  RH WIND       PRES   REMARKS
WAUSAU         SUNNY     46  37  71 N10       29.81R
MOSINEE        SUNNY     43  39  87 NW12      29.84R
MARSHFIELD     SUNNY     45  37  73 N14       29.84R
STEVENS POINT  MOSUNNY   42  36  80 N10       29.83R
WAUPACA        SUNNY     46  38  72 NW12G18   29.81R
WAUTOMA        PTSUNNY   45  37  76 NW13G24   29.82R
WISC RAPIDS    SUNNY     46  36  68 N14       29.85R
CAMP DOUGLAS   MOSUNNY   45  45 100 NW12      29.86R
$$

WIZ011>013-019>022-031-037>040-048>050-041400-
NORTHEAST WISCONSIN

CITY           SKY/WX    TMP DP  RH WIND       PRES   REMARKS
ANTIGO         SUNNY     38  33  80 N14G20    29.81R WCI  30
SHAWANO        CLOUDY    45  37  72 N9        29.80R
OCONTO         CLOUDY    44  36  73 NE13      29.78R
STURGEON BAY   CLOUDY    43  34  70 N25G32    29.78R
GREEN BAY      CLOUDY    44  37  76 N12       29.77R
MANITOWOC      CLOUDY    44  36  73 N18G31    29.75R
APPLETON       PTSUNNY   43  36  75 NW10G18   29.77R
CLINTONVILLE   PTSUNNY   43  36  75 N8        29.80R
OSHKOSH        CLOUDY    44  37  76 N15       29.78R
$$

WIZ032>034-041-042-053>061-041400-
SOUTHWEST WISCONSIN

CITY           SKY/WX    TMP DP  RH WIND       PRES   REMARKS
LA CROSSE      SUNNY     49  38  65 N10       29.90R
SPARTA         SUNNY     46  39  74 NW12      29.89R
VIROQUA        SUNNY     45  38  78 N9        29.87R
BOSCOBEL       SUNNY     50  39  66 N8        29.87R
PRAIRIE DU CHI SUNNY     49  36  61 N12G22    29.88R
PLATTEVILLE    MOSUNNY   47  42  82 N16G26    29.83R
$$

WIZ056-057-062-063-064-067-068-041400-
SOUTH CENTRAL WISCONSIN

CITY           SKY/WX    TMP DP  RH WIND       PRES   REMARKS
REEDSBURG      MOSUNNY   46  38  76 N13G24    29.84R
BARABOO/DELLS  MOSUNNY   45  36  72 N12G25    29.82S
LONE ROCK      SUNNY     48  39  71 N9        29.85R
MINERAL POINT  MOSUNNY   46  41  81 N10       29.83R
MADISON        MOSUNNY   45  38  76 N14G21    29.80R
MIDDLETON      MOSUNNY   47  39  73 N16G25    29.81R
WATERTOWN      CLOUDY    43  38  85 N15G25    29.78R
MONROE         CLOUDY    45  39  81 N10G22    29.79R
JANESVILLE     CLOUDY    46  39  76 N15G23    29.78R
$$

WIZ051-052-058>065-066-070>072-041400-
SOUTHEAST WISCONSIN

CITY           SKY/WX    TMP DP  RH WIND       PRES   REMARKS
MILWAUKEE      PTSUNNY   45  37  73 N15       29.74R
WAUKESHA       PTSUNNY   41  36  81 NW12G25   29.76R
MILWAUKEE/TIMM CLOUDY    43  34  70 N16G24    29.76R
RACINE         CLOUDY    46  37  71 N16G28    29.75R
BURLINGTON     MOSUNNY   44  38  77 N12G18    29.74S
KENOSHA        PTSUNNY   46  38  73 N13G23    29.73R
FOND DU LAC    CLOUDY    45  37  73 N17       29.78R
SHEBOYGAN      PTSUNNY   44  36  73 N20G29    29.74S
WEST BEND      CLOUDY    41  34  75 N13G21    29.76R
JUNEAU         CLOUDY    42  37  81 N13G22    29.79R
$$

LSZ147-162-041400-
LAKE SUPERIOR

STATION/POSITION TIME  TEMP    WIND        PRES    WAVE
                       AIR SEA DIR/SP/G            HT/PER
                 (UTC) (F)     (DEG/KT/KT) (MB)    (FT/S)
W MID LAKE BUOY  1250   39 37  360/ 10/ 12 1013.7R   1/ 5
DEVILS ISLAND    1300   41     350/ 13/ 14 1014.5R
SAXON HARBOR     1200   42     330/  9/ 10 1012.2R
$$

LMZ867-665-643>646-041400-
LAKE MICHIGAN

STATION/POSITION TIME  TEMP    WIND        PRES    WAVE
                       AIR SEA DIR/SP/G            HT/PER
                 (UTC) (F)     (DEG/KT/KT) (MB)    (FT/S)
CHAMBERS ISLAND  1200   41     340/ 25/ 29 1007.8R
N MID LAKE BUOY  1250   39 38  330/ 19/ 23 1006.7R   4/ 5
NORTHPORT PIER   1301   40     340/ 21     1008.1R
ALGOMA LAKESHORE 1215          340/ 15/ 21   N/A
KEWAUNEE LAKESHO 1200   43     350/ 12/ 18 1006.4R
SHEBOYGAN LAKESH 1300   45     350/ 25/ 27 1007.5R
PORT WASHINGTON  1240   46     340/ 13/ 19 1008.1R
S MID LAKE BUOY  1250   41 40  350/ 23/ 27 1004.9R   6/ 5
KENOSHA   LAKESH 1300   46      10/ 21/ 24 1006.4R
$$

TC  - TEMPERATURE IN CELSIUS
VSB - VISIBILITY IN STATUTE MILES
WCI - WIND CHILL INDEX
HX  - HEAT INDEX





USA.gov is the U.S. government's official web portal to all federal, state and local government web resources and services.